Year,Month,Day,Hour,Minute,Value (Times are PST for temperature in C)
2007,07,05,00,00,17.90
2007,07,05,00,01,17.90
2007,07,05,00,02,17.90
2007,07,05,00,03,17.90
2007,07,05,00,04,17.80
2007,07,05,00,05,17.80
2007,07,05,00,06,17.80
2007,07,05,00,07,17.70
2007,07,05,00,08,17.70
2007,07,05,00,09,17.70
2007,07,05,00,10,17.60
2007,07,05,00,11,17.60
2007,07,05,00,12,17.60
2007,07,05,00,13,17.60
2007,07,05,00,14,17.50
2007,07,05,00,15,17.40
2007,07,05,00,16,17.40
2007,07,05,00,17,17.30
2007,07,05,00,18,17.30
2007,07,05,00,19,17.30
2007,07,05,00,20,17.30
2007,07,05,00,21,17.30
2007,07,05,00,22,17.30
2007,07,05,00,23,17.20
2007,07,05,00,24,17.20
2007,07,05,00,25,17.20
2007,07,05,00,26,17.20
2007,07,05,00,27,17.20
2007,07,05,00,28,17.10
2007,07,05,00,29,17.10
2007,07,05,00,30,17.10
2007,07,05,00,31,17.10
2007,07,05,00,32,17.10
2007,07,05,00,33,17.20
2007,07,05,00,34,17.20
2007,07,05,00,35,17.20
2007,07,05,00,36,17.20
2007,07,05,00,37,17.20
2007,07,05,00,38,17.20
2007,07,05,00,39,17.20
2007,07,05,00,40,17.20
2007,07,05,00,41,17.20
2007,07,05,00,42,17.20
2007,07,05,00,43,17.20
2007,07,05,00,44,17.20
2007,07,05,00,45,17.20
2007,07,05,00,46,17.20
2007,07,05,00,47,17.20
2007,07,05,00,48,17.20
2007,07,05,00,49,17.20
2007,07,05,00,50,17.20
2007,07,05,00,51,17.20
2007,07,05,00,52,17.20
2007,07,05,00,53,17.20
2007,07,05,00,54,17.10
2007,07,05,00,55,17.10
2007,07,05,00,56,17.10
2007,07,05,00,57,17.10
2007,07,05,00,58,17.10
2007,07,05,00,59,17.10
2007,07,05,01,00,17.10
2007,07,05,01,01,17.10
2007,07,05,01,02,17.10
2007,07,05,01,03,17.10
2007,07,05,01,04,17.10
2007,07,05,01,05,17.10
2007,07,05,01,06,17.10
2007,07,05,01,07,17.10
2007,07,05,01,08,17.10
2007,07,05,01,09,17.10
2007,07,05,01,10,17.10
2007,07,05,01,11,17.10
2007,07,05,01,12,17.10
2007,07,05,01,13,17.10
2007,07,05,01,14,17.10
2007,07,05,01,15,17.00
2007,07,05,01,16,17.00
2007,07,05,01,17,17.00
2007,07,05,01,18,17.00
2007,07,05,01,19,17.00
2007,07,05,01,20,17.00
2007,07,05,01,21,17.00
2007,07,05,01,22,17.00
2007,07,05,01,23,17.00
2007,07,05,01,24,16.90
2007,07,05,01,25,16.90
2007,07,05,01,26,16.90
2007,07,05,01,27,16.90
2007,07,05,01,28,16.90
2007,07,05,01,29,16.90
2007,07,05,01,30,16.90
2007,07,05,01,31,16.80
2007,07,05,01,32,16.80
2007,07,05,01,33,16.80
2007,07,05,01,34,16.80
2007,07,05,01,35,16.80
2007,07,05,01,36,16.70
2007,07,05,01,37,16.70
2007,07,05,01,38,16.70
2007,07,05,01,39,16.70
2007,07,05,01,40,16.70
2007,07,05,01,41,16.70
2007,07,05,01,42,16.60
2007,07,05,01,43,16.60
2007,07,05,01,44,16.60
2007,07,05,01,45,16.60
2007,07,05,01,46,16.50
2007,07,05,01,47,16.40
2007,07,05,01,48,16.40
2007,07,05,01,49,16.40
2007,07,05,01,50,16.40
2007,07,05,01,51,16.40
2007,07,05,01,52,16.30
2007,07,05,01,53,16.30
2007,07,05,01,54,16.30
2007,07,05,01,55,16.30
2007,07,05,01,56,16.20
2007,07,05,01,57,16.20
2007,07,05,01,58,16.20
2007,07,05,01,59,16.10
2007,07,05,02,00,16.10
2007,07,05,02,01,16.10
2007,07,05,02,02,16.10
2007,07,05,02,03,16.10
2007,07,05,02,04,16.10
2007,07,05,02,05,16.10
2007,07,05,02,06,16.00
2007,07,05,02,07,15.90
2007,07,05,02,08,15.90
2007,07,05,02,09,15.90
2007,07,05,02,10,15.90
2007,07,05,02,11,15.80
2007,07,05,02,12,15.80
2007,07,05,02,13,15.80
2007,07,05,02,14,15.80
2007,07,05,02,15,15.80
2007,07,05,02,16,15.80
2007,07,05,02,17,15.80
2007,07,05,02,18,15.80
2007,07,05,02,19,15.70
2007,07,05,02,20,15.70
2007,07,05,02,21,15.70
2007,07,05,02,22,15.70
2007,07,05,02,23,15.60
2007,07,05,02,24,15.60
2007,07,05,02,25,15.60
2007,07,05,02,26,15.60
2007,07,05,02,27,15.50
2007,07,05,02,28,15.50
2007,07,05,02,29,15.50
2007,07,05,02,30,15.50
2007,07,05,02,31,15.40
2007,07,05,02,32,15.40
2007,07,05,02,33,15.40
2007,07,05,02,34,15.40
2007,07,05,02,35,15.40
2007,07,05,02,36,15.30
2007,07,05,02,37,15.30
2007,07,05,02,38,15.30
2007,07,05,02,39,15.30
2007,07,05,02,40,15.30
2007,07,05,02,41,15.30
2007,07,05,02,42,15.30
2007,07,05,02,43,15.30
2007,07,05,02,44,15.30
2007,07,05,02,45,15.30
2007,07,05,02,46,15.20
2007,07,05,02,47,15.20
2007,07,05,02,48,15.20
2007,07,05,02,49,15.10
2007,07,05,02,50,15.10
2007,07,05,02,51,15.10
2007,07,05,02,52,15.00
2007,07,05,02,53,15.00
2007,07,05,02,54,15.00
2007,07,05,02,55,15.00
2007,07,05,02,56,15.00
2007,07,05,02,57,15.00
2007,07,05,02,58,14.90
2007,07,05,02,59,14.90
2007,07,05,03,00,14.90
2007,07,05,03,01,14.90
2007,07,05,03,02,14.90
2007,07,05,03,03,14.90
2007,07,05,03,04,14.90
2007,07,05,03,05,14.90
2007,07,05,03,06,14.80
2007,07,05,03,07,14.80
2007,07,05,03,08,14.80
2007,07,05,03,09,14.80
2007,07,05,03,10,14.80
2007,07,05,03,11,14.80
2007,07,05,03,12,14.80
2007,07,05,03,13,14.80
2007,07,05,03,14,14.80
2007,07,05,03,15,14.80
2007,07,05,03,16,14.80
2007,07,05,03,17,14.80
2007,07,05,03,18,14.80
2007,07,05,03,19,14.80
2007,07,05,03,20,14.80
2007,07,05,03,21,14.80
2007,07,05,03,22,14.80
2007,07,05,03,23,14.70
2007,07,05,03,24,14.70
2007,07,05,03,25,14.70
2007,07,05,03,26,14.70
2007,07,05,03,27,14.70
2007,07,05,03,28,14.70
2007,07,05,03,29,14.70
2007,07,05,03,30,14.70
2007,07,05,03,31,14.70
2007,07,05,03,32,14.70
2007,07,05,03,33,14.70
2007,07,05,03,34,14.60
2007,07,05,03,35,14.60
2007,07,05,03,36,14.60
2007,07,05,03,37,14.60
2007,07,05,03,38,14.60
2007,07,05,03,39,14.50
2007,07,05,03,40,14.50
2007,07,05,03,41,14.50
2007,07,05,03,42,14.40
2007,07,05,03,43,14.40
2007,07,05,03,44,14.40
2007,07,05,03,45,14.40
2007,07,05,03,46,14.30
2007,07,05,03,47,14.30
2007,07,05,03,48,14.30
2007,07,05,03,49,14.30
2007,07,05,03,50,14.30
2007,07,05,03,51,14.30
2007,07,05,03,52,14.30
2007,07,05,03,53,14.30
2007,07,05,03,54,14.30
2007,07,05,03,55,14.20
2007,07,05,03,56,14.20
2007,07,05,03,57,14.20
2007,07,05,03,58,14.20
2007,07,05,03,59,14.20
2007,07,05,04,00,14.20
2007,07,05,04,01,14.20
2007,07,05,04,02,14.20
2007,07,05,04,03,14.20
2007,07,05,04,04,14.20
2007,07,05,04,05,14.20
2007,07,05,04,06,14.20
2007,07,05,04,07,14.20
2007,07,05,04,08,14.20
2007,07,05,04,09,14.20
2007,07,05,04,10,14.20
2007,07,05,04,11,14.20
2007,07,05,04,12,14.20
2007,07,05,04,13,14.20
2007,07,05,04,14,14.20
2007,07,05,04,15,14.20
2007,07,05,04,16,14.20
2007,07,05,04,17,14.20
2007,07,05,04,18,14.20
2007,07,05,04,19,14.20
2007,07,05,04,20,14.20
2007,07,05,04,21,14.20
2007,07,05,04,22,14.10
2007,07,05,04,23,14.10
2007,07,05,04,24,14.10
2007,07,05,04,25,14.10
2007,07,05,04,26,14.10
2007,07,05,04,27,14.10
2007,07,05,04,28,14.10
2007,07,05,04,29,14.10
2007,07,05,04,30,14.10
2007,07,05,04,31,14.10
2007,07,05,04,32,14.10
2007,07,05,04,33,14.10
2007,07,05,04,34,14.10
2007,07,05,04,35,14.10
2007,07,05,04,36,14.00
2007,07,05,04,37,14.00
2007,07,05,04,38,14.00
2007,07,05,04,39,14.00
2007,07,05,04,40,14.00
2007,07,05,04,41,14.00
2007,07,05,04,42,13.90
2007,07,05,04,43,13.90
2007,07,05,04,44,13.90
2007,07,05,04,45,13.90
2007,07,05,04,46,13.90
2007,07,05,04,47,13.90
2007,07,05,04,48,13.80
2007,07,05,04,49,13.80
2007,07,05,04,50,13.80
2007,07,05,04,51,13.80
2007,07,05,04,52,13.80
2007,07,05,04,53,13.80
2007,07,05,04,54,13.80
2007,07,05,04,55,13.80
2007,07,05,04,56,13.80
2007,07,05,04,57,13.80
2007,07,05,04,58,13.80
2007,07,05,04,59,13.70
2007,07,05,05,00,13.70
2007,07,05,05,01,13.70
2007,07,05,05,02,13.70
2007,07,05,05,03,13.70
2007,07,05,05,04,13.70
2007,07,05,05,05,13.70
2007,07,05,05,06,13.70
2007,07,05,05,07,13.70
2007,07,05,05,08,13.70
2007,07,05,05,09,13.70
2007,07,05,05,10,13.70
2007,07,05,05,11,13.60
2007,07,05,05,12,13.60
2007,07,05,05,13,13.60
2007,07,05,05,14,13.60
2007,07,05,05,15,13.60
2007,07,05,05,16,13.60
2007,07,05,05,17,13.60
2007,07,05,05,18,13.60
2007,07,05,05,19,13.60
2007,07,05,05,20,13.60
2007,07,05,05,21,13.60
2007,07,05,05,22,13.60
2007,07,05,05,23,13.60
2007,07,05,05,24,13.60
2007,07,05,05,25,13.60
2007,07,05,05,26,13.60
2007,07,05,05,27,13.60
2007,07,05,05,28,13.60
2007,07,05,05,29,13.60
2007,07,05,05,30,13.60
2007,07,05,05,31,13.60
2007,07,05,05,32,13.60
2007,07,05,05,33,13.60
2007,07,05,05,34,13.60
2007,07,05,05,35,13.60
2007,07,05,05,36,13.60
2007,07,05,05,37,13.60
2007,07,05,05,38,13.60
2007,07,05,05,39,13.60
2007,07,05,05,40,13.60
2007,07,05,05,41,13.60
2007,07,05,05,42,13.60
2007,07,05,05,43,13.70
2007,07,05,05,44,13.70
2007,07,05,05,45,13.70
2007,07,05,05,46,13.70
2007,07,05,05,47,13.70
2007,07,05,05,48,13.70
2007,07,05,05,49,13.70
2007,07,05,05,50,13.70
2007,07,05,05,51,13.70
2007,07,05,05,52,13.70
2007,07,05,05,53,13.80
2007,07,05,05,54,13.80
2007,07,05,05,55,13.90
2007,07,05,05,56,13.90
2007,07,05,05,57,13.90
2007,07,05,05,58,13.90
2007,07,05,05,59,13.90
2007,07,05,06,00,13.90
2007,07,05,06,01,13.90
2007,07,05,06,02,14.00
2007,07,05,06,03,14.00
2007,07,05,06,04,14.00
2007,07,05,06,05,14.10
2007,07,05,06,06,14.10
2007,07,05,06,07,14.20
2007,07,05,06,08,14.20
2007,07,05,06,09,14.20
2007,07,05,06,10,14.20
2007,07,05,06,11,14.20
2007,07,05,06,12,14.20
2007,07,05,06,13,14.30
2007,07,05,06,14,14.30
2007,07,05,06,15,14.30
2007,07,05,06,16,14.40
2007,07,05,06,17,14.40
2007,07,05,06,18,14.40
2007,07,05,06,19,14.40
2007,07,05,06,20,14.40
2007,07,05,06,21,14.40
2007,07,05,06,22,14.40
2007,07,05,06,23,14.40
2007,07,05,06,24,14.40
2007,07,05,06,25,14.50
2007,07,05,06,26,14.50
2007,07,05,06,27,14.50
2007,07,05,06,28,14.50
2007,07,05,06,29,14.50
2007,07,05,06,30,14.60
2007,07,05,06,31,14.60
2007,07,05,06,32,14.60
2007,07,05,06,33,14.60
2007,07,05,06,34,14.60
2007,07,05,06,35,14.70
2007,07,05,06,36,14.70
2007,07,05,06,37,14.80
2007,07,05,06,38,14.80
2007,07,05,06,39,14.80
2007,07,05,06,40,14.90
2007,07,05,06,41,14.90
2007,07,05,06,42,15.00
2007,07,05,06,43,15.10
2007,07,05,06,44,15.10
2007,07,05,06,45,15.20
2007,07,05,06,46,15.20
2007,07,05,06,47,15.30
2007,07,05,06,48,15.30
2007,07,05,06,49,15.30
2007,07,05,06,50,15.30
2007,07,05,06,51,15.30
2007,07,05,06,52,15.30
2007,07,05,06,53,15.30
2007,07,05,06,54,15.40
2007,07,05,06,55,15.40
2007,07,05,06,56,15.40
2007,07,05,06,57,15.40
2007,07,05,06,58,15.50
2007,07,05,06,59,15.50
2007,07,05,07,00,15.60
2007,07,05,07,01,15.60
2007,07,05,07,02,15.70
2007,07,05,07,03,15.80
2007,07,05,07,04,15.80
2007,07,05,07,05,15.80
2007,07,05,07,06,15.90
2007,07,05,07,07,16.00
2007,07,05,07,08,16.10
2007,07,05,07,09,16.10
2007,07,05,07,10,16.10
2007,07,05,07,11,16.20
2007,07,05,07,12,16.30
2007,07,05,07,13,16.30
2007,07,05,07,14,16.40
2007,07,05,07,15,16.40
2007,07,05,07,16,16.40
2007,07,05,07,17,16.40
2007,07,05,07,18,16.50
2007,07,05,07,19,16.60
2007,07,05,07,20,16.60
2007,07,05,07,21,16.60
2007,07,05,07,22,16.70
2007,07,05,07,23,16.70
2007,07,05,07,24,16.70
2007,07,05,07,25,16.70
2007,07,05,07,26,16.80
2007,07,05,07,27,16.90
2007,07,05,07,28,17.00
2007,07,05,07,29,17.00
2007,07,05,07,30,17.10
2007,07,05,07,31,17.30
2007,07,05,07,32,17.30
2007,07,05,07,33,17.30
2007,07,05,07,34,17.30
2007,07,05,07,35,17.40
2007,07,05,07,36,17.40
2007,07,05,07,37,17.40
2007,07,05,07,38,17.50
2007,07,05,07,39,17.60
2007,07,05,07,40,17.60
2007,07,05,07,41,17.60
2007,07,05,07,42,17.70
2007,07,05,07,43,17.60
2007,07,05,07,44,17.60
2007,07,05,07,45,17.60
2007,07,05,07,46,17.50
2007,07,05,07,47,17.50
2007,07,05,07,48,17.50
2007,07,05,07,49,17.40
2007,07,05,07,50,17.40
2007,07,05,07,51,17.50
2007,07,05,07,52,17.50
2007,07,05,07,53,17.60
2007,07,05,07,54,17.70
2007,07,05,07,55,17.80
2007,07,05,07,56,17.80
2007,07,05,07,57,17.80
2007,07,05,07,58,17.80
2007,07,05,07,59,17.80
2007,07,05,08,00,17.70
2007,07,05,08,01,17.70
2007,07,05,08,02,17.70
2007,07,05,08,03,17.70
2007,07,05,08,04,17.70
2007,07,05,08,05,17.80
2007,07,05,08,06,17.90
2007,07,05,08,07,17.90
2007,07,05,08,08,17.90
2007,07,05,08,09,18.00
2007,07,05,08,10,18.10
2007,07,05,08,11,18.20
2007,07,05,08,12,18.20
2007,07,05,08,13,18.20
2007,07,05,08,14,18.20
2007,07,05,08,15,18.30
2007,07,05,08,16,18.30
2007,07,05,08,17,18.30
2007,07,05,08,18,18.30
2007,07,05,08,19,18.30
2007,07,05,08,20,18.30
2007,07,05,08,21,18.40
2007,07,05,08,22,18.40
2007,07,05,08,23,18.40
2007,07,05,08,24,18.40
2007,07,05,08,25,18.50
2007,07,05,08,26,18.50
2007,07,05,08,27,18.50
2007,07,05,08,28,18.60
2007,07,05,08,29,18.70
2007,07,05,08,30,18.70
2007,07,05,08,31,18.70
2007,07,05,08,32,18.70
2007,07,05,08,33,18.70
2007,07,05,08,34,18.80
2007,07,05,08,35,18.90
2007,07,05,08,36,19.00
2007,07,05,08,37,19.10
2007,07,05,08,38,19.10
2007,07,05,08,39,19.20
2007,07,05,08,40,19.30
2007,07,05,08,41,19.30
2007,07,05,08,42,19.40
2007,07,05,08,43,19.40
2007,07,05,08,44,19.50
2007,07,05,08,45,19.60
2007,07,05,08,46,19.60
2007,07,05,08,47,19.70
2007,07,05,08,48,19.80
2007,07,05,08,49,19.80
2007,07,05,08,50,19.80
2007,07,05,08,51,19.80
2007,07,05,08,52,19.80
2007,07,05,08,53,19.80
2007,07,05,08,54,19.80
2007,07,05,08,55,19.80
2007,07,05,08,56,19.90
2007,07,05,08,57,19.90
2007,07,05,08,58,19.90
2007,07,05,08,59,19.90
2007,07,05,09,00,19.90
2007,07,05,09,01,20.00
2007,07,05,09,02,20.10
2007,07,05,09,03,20.20
2007,07,05,09,04,20.30
2007,07,05,09,05,20.40
2007,07,05,09,06,20.50
2007,07,05,09,07,20.50
2007,07,05,09,08,20.50
2007,07,05,09,09,20.40
2007,07,05,09,10,20.30
2007,07,05,09,11,20.20
2007,07,05,09,12,20.20
2007,07,05,09,13,20.10
2007,07,05,09,14,19.90
2007,07,05,09,15,19.90
2007,07,05,09,16,19.90
2007,07,05,09,17,19.80
2007,07,05,09,18,19.80
2007,07,05,09,19,19.90
2007,07,05,09,20,19.90
2007,07,05,09,21,20.10
2007,07,05,09,22,20.20
2007,07,05,09,23,20.20
2007,07,05,09,24,20.20
2007,07,05,09,25,20.20
2007,07,05,09,26,20.20
2007,07,05,09,27,20.30
2007,07,05,09,28,20.30
2007,07,05,09,29,20.30
2007,07,05,09,30,20.40
2007,07,05,09,31,20.40
2007,07,05,09,32,20.40
2007,07,05,09,33,20.50
2007,07,05,09,34,20.50
2007,07,05,09,35,20.40
2007,07,05,09,36,20.40
2007,07,05,09,37,20.40
2007,07,05,09,38,20.40
2007,07,05,09,39,20.40
2007,07,05,09,40,20.40
2007,07,05,09,41,20.30
2007,07,05,09,42,20.30
2007,07,05,09,43,20.30
2007,07,05,09,44,20.30
2007,07,05,09,45,20.40
2007,07,05,09,46,20.40
2007,07,05,09,47,20.40
2007,07,05,09,48,20.50
2007,07,05,09,49,20.50
2007,07,05,09,50,20.60
2007,07,05,09,51,20.60
2007,07,05,09,52,20.60
2007,07,05,09,53,20.60
2007,07,05,09,54,20.60
2007,07,05,09,55,20.50
2007,07,05,09,56,20.50
2007,07,05,09,57,20.60
2007,07,05,09,58,20.60
2007,07,05,09,59,20.70
2007,07,05,10,00,20.80
2007,07,05,10,01,20.80
2007,07,05,10,02,20.90
2007,07,05,10,03,21.00
2007,07,05,10,04,21.00
2007,07,05,10,05,21.10
2007,07,05,10,06,21.00
2007,07,05,10,07,21.00
2007,07,05,10,08,21.10
2007,07,05,10,09,21.20
2007,07,05,10,10,21.30
2007,07,05,10,11,21.30
2007,07,05,10,12,21.40
2007,07,05,10,13,21.50
2007,07,05,10,14,21.50
2007,07,05,10,15,21.40
2007,07,05,10,16,21.30
2007,07,05,10,17,21.30
2007,07,05,10,18,21.20
2007,07,05,10,19,21.20
2007,07,05,10,20,21.20
2007,07,05,10,21,21.10
2007,07,05,10,22,21.10
2007,07,05,10,23,21.00
2007,07,05,10,24,21.10
2007,07,05,10,25,21.20
2007,07,05,10,26,21.30
2007,07,05,10,27,21.30
2007,07,05,10,28,21.40
2007,07,05,10,29,21.50
2007,07,05,10,30,21.60
2007,07,05,10,31,21.80
2007,07,05,10,32,21.80
2007,07,05,10,33,21.80
2007,07,05,10,34,21.80
2007,07,05,10,35,21.90
2007,07,05,10,36,21.90
2007,07,05,10,37,21.90
2007,07,05,10,38,21.80
2007,07,05,10,39,21.80
2007,07,05,10,40,21.90
2007,07,05,10,41,21.80
2007,07,05,10,42,21.60
2007,07,05,10,43,21.40
2007,07,05,10,44,21.40
2007,07,05,10,45,21.30
2007,07,05,10,46,21.30
2007,07,05,10,47,21.20
2007,07,05,10,48,21.20
2007,07,05,10,49,21.10
2007,07,05,10,50,21.10
2007,07,05,10,51,21.10
2007,07,05,10,52,21.10
2007,07,05,10,53,21.10
2007,07,05,10,54,21.10
2007,07,05,10,55,21.00
2007,07,05,10,56,21.00
2007,07,05,10,57,21.00
2007,07,05,10,58,20.90
2007,07,05,10,59,20.90
2007,07,05,11,00,20.90
2007,07,05,11,01,21.00
2007,07,05,11,02,21.00
2007,07,05,11,03,21.00
2007,07,05,11,04,21.00
2007,07,05,11,05,21.00
2007,07,05,11,06,20.90
2007,07,05,11,07,20.80
2007,07,05,11,08,20.80
2007,07,05,11,09,20.80
2007,07,05,11,10,20.90
2007,07,05,11,11,20.90
2007,07,05,11,12,20.90
2007,07,05,11,13,20.90
2007,07,05,11,14,20.90
2007,07,05,11,15,21.00
2007,07,05,11,16,21.20
2007,07,05,11,17,21.30
2007,07,05,11,18,21.30
2007,07,05,11,19,21.20
2007,07,05,11,20,21.10
2007,07,05,11,21,21.10
2007,07,05,11,22,21.10
2007,07,05,11,23,21.10
2007,07,05,11,24,21.10
2007,07,05,11,25,21.10
2007,07,05,11,26,21.30
2007,07,05,11,27,21.30
2007,07,05,11,28,21.30
2007,07,05,11,29,21.30
2007,07,05,11,30,21.30
2007,07,05,11,31,21.30
2007,07,05,11,32,21.30
2007,07,05,11,33,21.30
2007,07,05,11,34,21.30
2007,07,05,11,35,21.30
2007,07,05,11,36,21.30
2007,07,05,11,37,21.30
2007,07,05,11,38,21.30
2007,07,05,11,39,21.30
2007,07,05,11,40,21.30
2007,07,05,11,41,21.30
2007,07,05,11,42,21.40
2007,07,05,11,43,21.60
2007,07,05,11,44,21.60
2007,07,05,11,45,21.60
2007,07,05,11,46,21.60
2007,07,05,11,47,21.60
2007,07,05,11,48,21.50
2007,07,05,11,49,21.40
2007,07,05,11,50,21.60
2007,07,05,11,51,21.60
2007,07,05,11,52,21.50
2007,07,05,11,53,21.40
2007,07,05,11,54,21.40
2007,07,05,11,55,21.40
2007,07,05,11,56,21.60
2007,07,05,11,57,21.50
2007,07,05,11,58,21.40
2007,07,05,11,59,21.40
2007,07,05,12,00,21.30
2007,07,05,12,01,21.20
2007,07,05,12,02,21.20
2007,07,05,12,03,21.30
2007,07,05,12,04,21.40
2007,07,05,12,05,21.60
2007,07,05,12,06,21.70
2007,07,05,12,07,21.80
2007,07,05,12,08,22.00
2007,07,05,12,09,22.10
2007,07,05,12,10,22.20
2007,07,05,12,11,22.10
2007,07,05,12,12,22.10
2007,07,05,12,13,22.10
2007,07,05,12,14,22.20
2007,07,05,12,15,22.30
2007,07,05,12,16,22.30
2007,07,05,12,17,22.30
2007,07,05,12,18,22.30
2007,07,05,12,19,22.20
2007,07,05,12,20,22.10
2007,07,05,12,21,22.00
2007,07,05,12,22,22.00
2007,07,05,12,23,22.00
2007,07,05,12,24,22.00
2007,07,05,12,25,22.00
2007,07,05,12,26,22.10
2007,07,05,12,27,22.10
2007,07,05,12,28,22.20
2007,07,05,12,29,22.20
2007,07,05,12,30,22.20
2007,07,05,12,31,22.20
2007,07,05,12,32,22.20
2007,07,05,12,33,22.20
2007,07,05,12,34,22.10
2007,07,05,12,35,22.10
2007,07,05,12,36,22.10
2007,07,05,12,37,22.20
2007,07,05,12,38,22.30
2007,07,05,12,39,22.30
2007,07,05,12,40,22.30
2007,07,05,12,41,22.40
2007,07,05,12,42,22.60
2007,07,05,12,43,22.70
2007,07,05,12,44,22.70
2007,07,05,12,45,22.70
2007,07,05,12,46,22.70
2007,07,05,12,47,22.70
2007,07,05,12,48,22.90
2007,07,05,12,49,22.90
2007,07,05,12,50,23.10
2007,07,05,12,51,23.20
2007,07,05,12,52,23.10
2007,07,05,12,53,22.90
2007,07,05,12,54,22.80
2007,07,05,12,55,22.70
2007,07,05,12,56,22.60
2007,07,05,12,57,22.60
2007,07,05,12,58,22.60
2007,07,05,12,59,22.50
2007,07,05,13,00,22.40
2007,07,05,13,01,22.30
2007,07,05,13,02,22.20
2007,07,05,13,03,22.10
2007,07,05,13,04,22.10
2007,07,05,13,05,22.10
2007,07,05,13,06,22.10
2007,07,05,13,07,22.10
2007,07,05,13,08,22.10
2007,07,05,13,09,22.10
2007,07,05,13,10,22.10
2007,07,05,13,11,22.30
2007,07,05,13,12,23.00
2007,07,05,13,13,23.10
2007,07,05,13,14,23.20
2007,07,05,13,15,23.20
2007,07,05,13,16,23.30
2007,07,05,13,17,23.30
2007,07,05,13,18,23.50
2007,07,05,13,19,23.60
2007,07,05,13,20,23.70
2007,07,05,13,21,23.70
2007,07,05,13,22,23.70
2007,07,05,13,23,23.70
2007,07,05,13,24,23.60
2007,07,05,13,25,23.40
2007,07,05,13,26,23.20
2007,07,05,13,27,23.10
2007,07,05,13,28,22.90
2007,07,05,13,29,22.90
2007,07,05,13,30,22.90
2007,07,05,13,31,22.90
2007,07,05,13,32,22.90
2007,07,05,13,33,22.90
2007,07,05,13,34,22.90
2007,07,05,13,35,22.90
2007,07,05,13,36,22.90
2007,07,05,13,37,22.90
2007,07,05,13,38,23.10
2007,07,05,13,39,23.20
2007,07,05,13,40,23.30
2007,07,05,13,41,23.30
2007,07,05,13,42,23.30
2007,07,05,13,43,23.40
2007,07,05,13,44,23.40
2007,07,05,13,45,23.40
2007,07,05,13,46,23.30
2007,07,05,13,47,23.10
2007,07,05,13,48,23.00
2007,07,05,13,49,22.90
2007,07,05,13,50,22.90
2007,07,05,13,51,22.90
2007,07,05,13,52,22.80
2007,07,05,13,53,22.80
2007,07,05,13,54,22.90
2007,07,05,13,55,22.90
2007,07,05,13,56,22.90
2007,07,05,13,57,22.90
2007,07,05,13,58,23.00
2007,07,05,13,59,23.10
2007,07,05,14,00,23.10
2007,07,05,14,01,23.20
2007,07,05,14,02,23.30
2007,07,05,14,03,23.30
2007,07,05,14,04,23.50
2007,07,05,14,05,23.70
2007,07,05,14,06,23.60
2007,07,05,14,07,23.60
2007,07,05,14,08,23.40
2007,07,05,14,09,23.30
2007,07,05,14,10,23.30
2007,07,05,14,11,23.30
2007,07,05,14,12,23.30
2007,07,05,14,13,23.40
2007,07,05,14,14,23.50
2007,07,05,14,15,23.70
2007,07,05,14,16,23.80
2007,07,05,14,17,23.90
2007,07,05,14,18,24.10
2007,07,05,14,19,24.20
2007,07,05,14,20,24.50
2007,07,05,14,21,24.60
2007,07,05,14,22,24.80
2007,07,05,14,23,24.90
2007,07,05,14,24,24.90
2007,07,05,14,25,24.90
2007,07,05,14,26,25.00
2007,07,05,14,27,25.10
2007,07,05,14,28,25.10
2007,07,05,14,29,25.20
2007,07,05,14,30,25.30
2007,07,05,14,31,25.40
2007,07,05,14,32,25.40
2007,07,05,14,33,25.30
2007,07,05,14,34,25.20
2007,07,05,14,35,25.30
2007,07,05,14,36,25.40
2007,07,05,14,37,25.50
2007,07,05,14,38,25.50
2007,07,05,14,39,25.60
2007,07,05,14,40,25.70
2007,07,05,14,41,25.70
2007,07,05,14,42,25.80
2007,07,05,14,43,25.80
2007,07,05,14,44,25.90
2007,07,05,14,45,26.00
2007,07,05,14,46,26.00
2007,07,05,14,47,26.00
2007,07,05,14,48,26.00
2007,07,05,14,49,26.20
2007,07,05,14,50,26.20
2007,07,05,14,51,26.30
2007,07,05,14,52,26.30
2007,07,05,14,53,26.30
2007,07,05,14,54,26.30
2007,07,05,14,55,26.20
2007,07,05,14,56,26.30
2007,07,05,14,57,26.30
2007,07,05,14,58,26.40
2007,07,05,14,59,26.30
2007,07,05,15,00,26.30
2007,07,05,15,01,26.20
2007,07,05,15,02,26.20
2007,07,05,15,03,26.10
2007,07,05,15,04,26.10
2007,07,05,15,05,26.00
2007,07,05,15,06,25.90
2007,07,05,15,07,25.80
2007,07,05,15,08,25.90
2007,07,05,15,09,25.90
2007,07,05,15,10,25.90
2007,07,05,15,11,25.90
2007,07,05,15,12,25.90
2007,07,05,15,13,25.90
2007,07,05,15,14,25.80
2007,07,05,15,15,25.80
2007,07,05,15,16,25.90
2007,07,05,15,17,25.90
2007,07,05,15,18,25.90
2007,07,05,15,19,25.80
2007,07,05,15,20,25.70
2007,07,05,15,21,25.70
2007,07,05,15,22,25.70
2007,07,05,15,23,25.80
2007,07,05,15,24,25.90
2007,07,05,15,25,25.90
2007,07,05,15,26,26.00
2007,07,05,15,27,26.00
2007,07,05,15,28,26.00
2007,07,05,15,29,26.00
2007,07,05,15,30,25.90
2007,07,05,15,31,25.90
2007,07,05,15,32,25.90
2007,07,05,15,33,25.90
2007,07,05,15,34,25.90
2007,07,05,15,35,25.90
2007,07,05,15,36,25.90
2007,07,05,15,37,26.00
2007,07,05,15,38,26.20
2007,07,05,15,39,26.20
2007,07,05,15,40,26.20
2007,07,05,15,41,26.20
2007,07,05,15,42,26.30
2007,07,05,15,43,26.40
2007,07,05,15,44,26.50
2007,07,05,15,45,26.50
2007,07,05,15,46,26.40
2007,07,05,15,47,26.50
2007,07,05,15,48,26.60
2007,07,05,15,49,26.40
2007,07,05,15,50,26.40
2007,07,05,15,51,26.40
2007,07,05,15,52,26.50
2007,07,05,15,53,26.60
2007,07,05,15,54,26.60
2007,07,05,15,55,26.60
2007,07,05,15,56,26.60
2007,07,05,15,57,26.60
2007,07,05,15,58,26.60
2007,07,05,15,59,26.60
2007,07,05,16,00,26.60
2007,07,05,16,01,26.60
2007,07,05,16,02,26.70
2007,07,05,16,03,26.80
2007,07,05,16,04,26.90
2007,07,05,16,05,27.00
2007,07,05,16,06,27.10
2007,07,05,16,07,27.10
2007,07,05,16,08,27.00
2007,07,05,16,09,27.00
2007,07,05,16,10,27.10
2007,07,05,16,11,27.10
2007,07,05,16,12,27.10
2007,07,05,16,13,27.20
2007,07,05,16,14,27.30
2007,07,05,16,15,27.30
2007,07,05,16,16,27.30
2007,07,05,16,17,27.30
2007,07,05,16,18,27.30
2007,07,05,16,19,27.30
2007,07,05,16,20,27.30
2007,07,05,16,21,27.30
2007,07,05,16,22,27.30
2007,07,05,16,23,27.30
2007,07,05,16,24,27.20
2007,07,05,16,25,27.30
2007,07,05,16,26,27.30
2007,07,05,16,27,27.30
2007,07,05,16,28,27.30
2007,07,05,16,29,27.30
2007,07,05,16,30,27.40
2007,07,05,16,31,27.50
2007,07,05,16,32,27.60
2007,07,05,16,33,27.70
2007,07,05,16,34,27.70
2007,07,05,16,35,27.60
2007,07,05,16,36,27.60
2007,07,05,16,37,27.70
2007,07,05,16,38,27.80
2007,07,05,16,39,27.90
2007,07,05,16,40,27.90
2007,07,05,16,41,28.00
2007,07,05,16,42,28.00
2007,07,05,16,43,28.00
2007,07,05,16,44,28.00
2007,07,05,16,45,28.10
2007,07,05,16,46,28.20
2007,07,05,16,47,28.30
2007,07,05,16,48,28.30
2007,07,05,16,49,28.30
2007,07,05,16,50,28.20
2007,07,05,16,51,28.20
2007,07,05,16,52,28.10
2007,07,05,16,53,28.10
2007,07,05,16,54,28.00
2007,07,05,16,55,28.00
2007,07,05,16,56,28.00
2007,07,05,16,57,28.00
2007,07,05,16,58,28.00
2007,07,05,16,59,28.00
2007,07,05,17,00,28.00
2007,07,05,17,01,28.00
2007,07,05,17,02,28.00
2007,07,05,17,03,27.90
2007,07,05,17,04,27.90
2007,07,05,17,05,27.80
2007,07,05,17,06,27.70
2007,07,05,17,07,27.70
2007,07,05,17,08,27.70
2007,07,05,17,09,27.70
2007,07,05,17,10,27.70
2007,07,05,17,11,27.70
2007,07,05,17,12,27.80
2007,07,05,17,13,27.70
2007,07,05,17,14,27.60
2007,07,05,17,15,27.50
2007,07,05,17,16,27.30
2007,07,05,17,17,27.30
2007,07,05,17,18,27.20
2007,07,05,17,19,27.20